Home > Weather > Tashkent > Past weeks

Flag for Uzbekistan Weather for the Past 2 Weeks in Tashkent, Uzbekistan

Now
70 °F

Passing clouds.


Feels Like: 70 °F
Forecast: 60 / 74 °F
Wind: 10 mph from Northwest

Location: Tashkent

Current Time: May 2, 2016 at 2:17:06 AM

Latest Report: May 2, 2016 at 1:30 AM


Visibility: N/A

Pressure: 29.86 "Hg

Humidity: 64%

Dew Point: 57 °F

Location of TashkentLocation

Historic Weather in Tashkent — Graph

°F

Tashkent Temperature Yesterday

Maximum temperature yesterday: 91 °F (at 1:00 PM)
Minimum temperature yesterday: 66 °F (at 5:30 AM)
Average temperature yesterday: 79 °F

High & Low Weather Summary for the Past Weeks

 TemperatureHumidityPressure
High91 °F (Apr 29, 4:30 PM)100% (Apr 18, 1:30 AM)30.27 "Hg (Apr 18, 1:30 AM)
Low50 °F (Apr 21, 3:30 AM)21% (Apr 29, 4:30 PM)29.65 "Hg (Apr 17, 1:00 AM)
Average67 °F63%29.99 "Hg
* Reported Apr 17 1:00 AM — May 2 1:00 AM, Tashkent, Weather by CustomWeather, © 2016

Note: Actual official high and low records may vary slightly from our data, if they occured in-between our weather recording intervals... More about our weather records

Advertising

Tashkent Weather History for the Previous 24 Hours

Scroll right to see more
 ConditionsComfort  
Time TempWeatherWind HumidityBarometerVisibility
1:00 AM
Mon, May 2
70 °FClear.6 mph64%29.83 "Hg10 mi
12:30 AM72 °FClear.2 mph57%29.83 "Hg10 mi
12:00 AM72 °FClear.8 mph57%29.83 "Hg10 mi
11:30 PM
Sun, May 1
75 °FClear.8 mph50%29.83 "Hg10 mi
11:00 PM77 °FPassing clouds.7 mph47%29.83 "HgN/A
10:30 PM77 °FPassing clouds.10 mph47%29.83 "HgN/A
10:00 PM79 °FClear.10 mph48%29.83 "Hg10 mi
9:30 PM81 °FPassing clouds.10 mph45%29.80 "HgN/A
9:00 PM81 °FPassing clouds.8 mph45%29.80 "HgN/A
8:30 PM81 °FPassing clouds.9 mph45%29.80 "Hg2 mi
8:00 PM82 °FPassing clouds.9 mph45%29.74 "Hg2 mi
7:30 PM82 °FPassing clouds.5 mph45%29.77 "Hg2 mi
7:00 PM82 °FScattered clouds.2 mph48%29.77 "Hg4 mi
6:30 PM86 °FScattered clouds.5 mph40%29.74 "Hg4 mi
6:00 PM86 °FScattered clouds.3 mph38%29.74 "Hg4 mi
5:30 PM86 °FPassing clouds.7 mph43%29.74 "HgN/A
5:00 PM88 °FPassing clouds.6 mph38%29.74 "HgN/A
4:30 PM88 °FPassing clouds.5 mph33%29.74 "HgN/A
4:00 PM88 °FPassing clouds.7 mph35%29.74 "HgN/A
3:30 PM88 °FPassing clouds.5 mph38%29.77 "HgN/A
3:00 PM88 °FPassing clouds.7 mph38%29.77 "HgN/A
2:30 PM90 °FPassing clouds.12 mph33%29.74 "HgN/A
2:00 PM90 °FClear.10 mph38%29.74 "Hg4 mi
1:30 PM90 °FClear.10 mph36%29.74 "Hg4 mi
1:00 PM91 °FClear.10 mph34%29.74 "Hg4 mi
12:30 PM90 °FClear.9 mph33%29.74 "Hg4 mi
11:30 AM90 °FClear.5 mph29%29.74 "Hg4 mi
11:00 AM88 °FClear.5 mph31%29.74 "Hg4 mi
10:30 AM86 °FClear.3 mph35%29.74 "Hg4 mi
10:00 AM84 °FPassing clouds.6 mph40%29.74 "HgN/A
9:00 AM81 °FSunny.9 mph39%29.74 "Hg10 mi
8:30 AM79 °FSunny.9 mph45%29.77 "Hg10 mi
8:00 AM75 °FSunny.8 mph47%29.77 "Hg10 mi
7:00 AM70 °FSunny.8 mph60%29.77 "Hg10 mi
6:30 AM68 °FSunny.7 mph56%29.77 "Hg10 mi
6:00 AM66 °FPassing clouds.3 mph60%29.77 "HgN/A
5:30 AM66 °FSunny.6 mph60%29.77 "Hg10 mi
5:00 AM68 °FClear.7 mph56%29.77 "Hg10 mi
4:30 AM68 °FPassing clouds.3 mph56%29.77 "HgN/A
4:00 AM68 °FClear.6 mph60%29.77 "Hg10 mi
3:30 AM68 °FClear.6 mph56%29.77 "Hg10 mi
3:00 AM70 °FPassing clouds.5 mph53%29.77 "HgN/A
2:30 AM70 °FClear.6 mph53%29.77 "Hg10 mi
2:00 AM68 °FClear.3 mph60%29.80 "Hg10 mi
Weather by CustomWeather, © 2016

See weather overviewHow to use our weather pages